[[{"header":{"parameterUnit":"m.s-1","parameterCategory":1,"la1":30.2991,"la2":30.254,"lo1":-89.0895,"lo2":-89.0444,"dx":0.0017,"dy":0.0017,"nx":28,"ny":28,"refTime":"2023-01-21T15:00:00:Z","depth":0,"parameterNumber":2,"parameterNumberName":"U-component_of_WINDS"},"data":[0,0,0,0,0,0,0,0,0,0,0,0,0,0,0,0,0,0,0,0,0,0,0,0,0,0,0,0,0,0,0,0,0,0,0,0,0,0,0,0,0,0,0,0,0,0,0,0,0,0,0,0,0,0,0,0,0,0,3.1789,3.1789,0,3.1869,3.187,3.1871,3.1846,3.1844,3.1842,3.1841,3.1924,3.1928,3.1932,0,0,0,0,0,0,0,0,0,0,0,0,0,3.1614,3.1618,3.1789,3.179,3.1791,3.1869,3.187,3.1871,3.1846,3.1844,3.1842,3.184,3.1923,3.1928,3.1932,0,0,0,0,0,0,0,0,0,0,0,0,0,3.1692,3.1619,3.1788,3.1787,3.1788,3.1869,3.187,3.1872,3.1846,3.1844,3.1841,3.1839,3.1922,3.1927,3.1933,3.202,0,0,3.195,3.1953,0,0,0,0,0,0,0,0,3.1688,3.1699,3.1786,3.1787,3.1788,3.1845,3.184,3.1922,3.1847,3.1824,3.184,3.1837,3.19,3.1907,3.1928,3.2024,3.2028,3.1951,3.1954,3.1957,3.1959,0,0,0,0,0,0,0,3.1682,3.1695,3.1821,3.1788,3.1789,3.1784,3.1792,3.1855,3.1876,3.1826,3.1824,3.1834,3.19,3.1923,3.193,3.2029,3.1951,3.1956,3.1959,3.1962,3.2203,3.2206,0,0,0,0,0,0,3.1676,3.1691,3.1818,3.1823,3.1731,3.1789,3.1798,3.1829,3.1875,3.1879,3.1836,3.1833,3.1914,3.1923,3.1933,3.204,3.1957,3.1962,3.1966,3.22,3.2204,3.2207,0,0,0,0,0,0,3.1673,3.1688,3.1815,3.1756,3.1772,3.1794,3.183,3.1832,3.1855,3.1883,3.1886,3.1856,3.1913,3.1925,3.1999,3.2042,3.1965,3.197,3.2197,3.2201,3.2205,3.2253,0,0,0,0,0,0,3.1668,3.1687,3.1719,3.1757,3.1775,3.1879,3.1833,3.1836,3.1865,3.1861,3.1902,3.1906,3.1911,3.1991,3.2005,3.2049,3.1975,3.2193,3.2199,3.2204,3.2248,3.2259,3.2268,0,0,0,0,0,3.1661,3.1729,3.1721,3.1737,3.1817,3.1882,3.1892,3.1896,3.1868,3.1902,3.192,3.1905,3.2035,3.1999,3.2014,3.2061,3.219,3.2197,3.2203,3.2243,3.2257,3.2268,0,0,0,0,0,0,3.1696,3.1734,3.1726,3.1808,3.1842,3.1877,3.192,3.191,3.1953,3.1947,3.1951,3.1961,3.2038,3.2056,3.2015,3.2149,3.2109,3.2119,3.2134,3.2146,3.2156,3.2151,3.1979,0,0,0,0,0,3.1713,3.1762,3.1793,3.1863,3.188,3.1897,3.1925,3.1926,3.1961,3.1976,3.1999,3.2035,3.2084,3.2116,3.2162,3.225,3.226,3.229,3.23,3.2308,3.2317,3.2367,3.2382,3.2229,3.2229,3.2228,0,0,3.1749,3.1776,3.1807,3.187,3.1897,3.1948,3.1909,3.1965,3.2004,3.1984,3.2056,3.2075,3.2115,3.2197,3.2234,3.2215,3.2362,3.2317,3.2323,3.2328,3.2376,3.239,3.2403,3.2233,3.2232,3.2232,0,0,3.1841,3.1866,3.1927,3.1955,3.1995,3.2006,3.2021,3.2059,3.2071,3.2143,3.213,3.2176,3.226,3.229,3.2316,3.2421,3.2409,3.2436,3.2489,3.2538,3.255,3.256,3.2599,3.2613,3.2445,3.2445,3.2445,0,3.1881,3.1957,3.196,3.2018,3.2047,3.2032,3.2095,3.2122,3.2175,3.2196,3.2174,3.228,3.2306,3.2396,3.2422,3.2443,3.2461,3.2432,3.2547,3.2558,3.2568,3.2606,3.262,3.2448,3.2448,3.2447,3.2447,0,3.2005,3.2059,3.2104,3.2156,3.219,3.225,3.2263,3.2298,3.2296,3.231,3.2384,3.2415,3.2468,3.2489,3.2488,3.258,3.2567,3.2546,3.2506,3.2586,3.2621,3.2636,3.2452,3.2451,3.245,3.245,0,0,3.2121,3.2175,3.2192,3.2216,3.2261,3.2302,3.2362,3.2414,3.2445,3.2483,3.2534,3.2606,3.2588,3.2618,3.2619,3.2662,3.2746,3.2636,3.2637,3.2657,3.2851,3.2867,3.2883,3.2738,3.274,3.2742,3.2848,0,3.2218,3.2323,3.2328,3.2424,3.2474,3.2462,3.2514,3.2548,3.2563,3.2608,3.2625,3.2677,3.2647,3.2666,3.2707,3.2726,3.2785,3.2719,3.2787,3.2789,3.2778,3.2901,3.2918,3.3016,3.2862,3.2864,3.2866,0,3.2345,3.2387,3.2488,3.2527,3.2548,3.2595,3.2644,3.2688,3.2726,3.2734,3.2768,3.2764,3.2827,3.2785,3.2872,3.2827,3.2856,3.287,3.2873,3.2881,3.2833,3.2913,3.3047,3.3063,3.2887,3.2885,3.2884,0,3.2421,3.2503,3.2575,3.2596,3.2642,3.2676,3.2697,3.2733,3.2764,3.2808,3.2829,3.2878,3.2906,3.2946,3.2956,3.2924,3.3044,3.3002,3.3054,3.3054,3.308,3.3079,3.3222,3.3097,3.3096,3.3096,3.3096,0,3.253,3.2592,3.261,3.2654,3.2725,3.273,3.28,3.2819,3.2851,3.29,3.2891,3.2937,3.2948,3.2996,3.3005,3.3077,3.3089,3.3098,3.31,3.31,3.3099,3.3119,3.3113,3.31,3.3099,3.3098,3.3098,0,3.2627,3.2641,3.2719,3.2756,3.2767,3.2818,3.2851,3.2894,3.2908,3.297,3.2984,3.3007,3.3064,3.3078,3.3145,3.3151,3.3237,3.3232,3.3224,3.3224,3.3276,3.3271,3.3438,3.3461,3.3319,3.3321,3.3322,0,3.2696,3.2744,3.2787,3.2819,3.2841,3.2892,3.2925,3.2933,3.2967,3.3015,3.3053,3.3109,3.3154,3.3245,3.3268,3.332,3.3317,3.3372,3.3325,3.3324,3.332,3.3317,3.3323,3.3381,3.3383,3.3384,3.3385,0,3.2817,3.2822,3.2868,3.2918,3.2957,3.2997,3.3035,3.3062,3.3075,3.3114,3.3172,3.3207,3.3277,3.3333,3.3385,3.3408,3.34,3.3399,3.3414,3.3415,3.3409,3.3415,3.325,3.3396,3.3395,3.3394,3.3393,3.3393,3.2903,3.2946,3.2983,3.3036,3.3066,3.3102,3.3144,3.3164,3.3212,3.3269,3.3271,3.3335,3.3374,3.3444,3.3469,3.352,3.3503,3.3525,3.353,3.3536,3.3541,3.3401,3.3529,3.3529,3.3529,3.3529,3.3528,0,3.3025,3.3049,3.3097,3.3151,3.3193,3.318,3.3222,3.3259,3.3314,3.3351,3.3396,3.3463,3.3518,3.3546,3.36,3.3636,3.3633,3.365,3.3648,3.3654,3.3552,3.3534,3.3651,3.3651,3.3651,3.3651,3.3651,3.3651,3.3093,3.3166,3.3175,3.3263,3.3286,3.3348,3.3373,3.3407,3.3436,3.3512,3.3557,3.3575,3.3609,3.3666,3.3716,3.3723,3.3744,3.3763,3.3768,3.3673,3.366,3.3649,3.3632,3.3767,3.3767,3.3866,3.3867,3.3867]},{"header":{"parameterUnit":"m.s-1","parameterCategory":1,"la1":30.2991,"la2":30.254,"lo1":-89.0895,"lo2":-89.0444,"dx":0.0017,"dy":0.0017,"nx":28,"ny":28,"refTime":"2023-01-21T15:00:00:Z","depth":0,"parameterNumber":3,"parameterNumberName":"V-component_of_WINDS"},"data":[0,0,0,0,0,0,0,0,0,0,0,0,0,0,0,0,0,0,0,0,0,0,0,0,0,0,0,0,0,0,0,0,0,0,0,0,0,0,0,0,0,0,0,0,0,0,0,0,0,0,0,0,0,0,0,0,0,0,-1.7245,-1.7246,0,-1.7321,-1.7322,-1.7323,-1.7361,-1.7361,-1.7361,-1.7361,-1.7439,-1.7441,-1.7443,0,0,0,0,0,0,0,0,0,0,0,0,0,-1.7133,-1.7135,-1.7245,-1.7246,-1.7247,-1.7321,-1.7322,-1.7323,-1.7361,-1.7361,-1.7361,-1.7361,-1.7438,-1.744,-1.7443,0,0,0,0,0,0,0,0,0,0,0,0,0,-1.7193,-1.7135,-1.7245,-1.7274,-1.7278,-1.7321,-1.7322,-1.7324,-1.7361,-1.7361,-1.7361,-1.7361,-1.7437,-1.744,-1.7443,-1.7462,0,0,-1.7453,-1.7454,0,0,0,0,0,0,0,0,-1.7189,-1.7197,-1.7269,-1.7273,-1.7276,-1.7332,-1.7311,-1.737,-1.7361,-1.7329,-1.7361,-1.7361,-1.7403,-1.7409,-1.7423,-1.7466,-1.7469,-1.7453,-1.7455,-1.7456,-1.7457,0,0,0,0,0,0,0,-1.7185,-1.7194,-1.7275,-1.727,-1.7275,-1.7285,-1.7293,-1.7323,-1.7365,-1.7332,-1.7335,-1.7344,-1.7405,-1.742,-1.7425,-1.747,-1.7453,-1.7456,-1.7458,-1.7459,-1.7536,-1.7536,0,0,0,0,0,0,-1.7176,-1.719,-1.7273,-1.7277,-1.7232,-1.7287,-1.7296,-1.7314,-1.7365,-1.7373,-1.7344,-1.7345,-1.7415,-1.7422,-1.7428,-1.7456,-1.7456,-1.7459,-1.7461,-1.7536,-1.7536,-1.7536,0,0,0,0,0,0,-1.7173,-1.7183,-1.727,-1.7235,-1.7246,-1.7289,-1.7308,-1.7315,-1.7331,-1.7374,-1.7382,-1.7351,-1.7415,-1.7424,-1.7454,-1.7459,-1.7461,-1.7463,-1.7536,-1.7536,-1.7536,-1.751,0,0,0,0,0,0,-1.717,-1.7182,-1.7189,-1.7234,-1.7248,-1.7294,-1.7308,-1.7317,-1.7336,-1.7339,-1.7383,-1.739,-1.7416,-1.745,-1.7457,-1.7463,-1.7466,-1.7535,-1.7536,-1.7536,-1.751,-1.7509,-1.7508,0,0,0,0,0,-1.7166,-1.7178,-1.7189,-1.7199,-1.7258,-1.7294,-1.7302,-1.7331,-1.7336,-1.7344,-1.7372,-1.7389,-1.7457,-1.7452,-1.7462,-1.7468,-1.7535,-1.7536,-1.7536,-1.7511,-1.7509,-1.7508,0,0,0,0,0,0,-1.713,-1.7184,-1.7197,-1.7224,-1.7254,-1.73,-1.7311,-1.7328,-1.7357,-1.7359,-1.7394,-1.7404,-1.7431,-1.7453,-1.7447,-1.7491,-1.7498,-1.75,-1.7476,-1.7475,-1.7474,-1.7468,-1.7468,0,0,0,0,0,-1.7126,-1.715,-1.7196,-1.7215,-1.723,-1.7268,-1.7284,-1.7305,-1.7338,-1.735,-1.7381,-1.7412,-1.7441,-1.7459,-1.7488,-1.7514,-1.7525,-1.7524,-1.7523,-1.7521,-1.7523,-1.7541,-1.7541,-1.7538,-1.7538,-1.7538,0,0,-1.7116,-1.7149,-1.7162,-1.7209,-1.7235,-1.726,-1.7278,-1.7304,-1.7323,-1.7354,-1.7385,-1.7409,-1.7447,-1.7476,-1.749,-1.7494,-1.7527,-1.7522,-1.7521,-1.7523,-1.7542,-1.7542,-1.7542,-1.7538,-1.7538,-1.7538,0,0,-1.7112,-1.7138,-1.7158,-1.7185,-1.7224,-1.725,-1.7255,-1.7299,-1.7316,-1.7348,-1.7373,-1.7397,-1.7445,-1.7472,-1.7491,-1.7501,-1.7518,-1.7509,-1.7503,-1.752,-1.7521,-1.7521,-1.7526,-1.7527,-1.7511,-1.7511,-1.7511,0,-1.7095,-1.7134,-1.7166,-1.7192,-1.7212,-1.7243,-1.7264,-1.7288,-1.7335,-1.7349,-1.7354,-1.7417,-1.7444,-1.7481,-1.7484,-1.7499,-1.7507,-1.7504,-1.7518,-1.7519,-1.752,-1.7525,-1.7526,-1.751,-1.751,-1.751,-1.751,0,-1.7112,-1.7139,-1.7151,-1.7196,-1.7219,-1.7241,-1.7278,-1.7297,-1.7317,-1.7342,-1.7376,-1.741,-1.7448,-1.7458,-1.7476,-1.7499,-1.7501,-1.7511,-1.7519,-1.7518,-1.7524,-1.7526,-1.7508,-1.7508,-1.7509,-1.7509,0,0,-1.7086,-1.7151,-1.7155,-1.7177,-1.7224,-1.7246,-1.7272,-1.7309,-1.7325,-1.7357,-1.7381,-1.7423,-1.7434,-1.7456,-1.7478,-1.7493,-1.7501,-1.7503,-1.7504,-1.7502,-1.753,-1.7522,-1.7524,-1.7513,-1.7514,-1.7514,-1.7528,0,-1.7089,-1.7135,-1.7167,-1.7202,-1.7228,-1.7259,-1.7282,-1.7314,-1.7339,-1.7366,-1.7395,-1.7424,-1.7436,-1.745,-1.7467,-1.7497,-1.7508,-1.7496,-1.7536,-1.7537,-1.7526,-1.7527,-1.7518,-1.7528,-1.753,-1.753,-1.753,0,-1.7098,-1.713,-1.7168,-1.7215,-1.7227,-1.7247,-1.7285,-1.731,-1.7348,-1.7366,-1.7393,-1.7416,-1.7446,-1.7452,-1.7494,-1.7486,-1.7505,-1.7522,-1.7524,-1.7528,-1.7534,-1.7532,-1.7532,-1.7534,-1.7534,-1.7534,-1.7533,0,-1.7076,-1.7129,-1.7159,-1.7177,-1.7232,-1.7246,-1.727,-1.7308,-1.7329,-1.7363,-1.7378,-1.7415,-1.7435,-1.7463,-1.7497,-1.7497,-1.7537,-1.7544,-1.7553,-1.7552,-1.7559,-1.7559,-1.7563,-1.7571,-1.7571,-1.757,-1.757,0,-1.7076,-1.7099,-1.7151,-1.7169,-1.7196,-1.7233,-1.7258,-1.7285,-1.7319,-1.7344,-1.7373,-1.7396,-1.7439,-1.7468,-1.7494,-1.7527,-1.7535,-1.7551,-1.7558,-1.7549,-1.7547,-1.7561,-1.7562,-1.7571,-1.7571,-1.7571,-1.7571,0,-1.7056,-1.7092,-1.7127,-1.7177,-1.7191,-1.7208,-1.7252,-1.7272,-1.73,-1.7332,-1.7341,-1.7385,-1.7421,-1.7458,-1.7506,-1.7524,-1.7556,-1.7565,-1.7543,-1.7547,-1.7554,-1.7553,-1.7569,-1.7573,-1.7576,-1.7576,-1.7576,0,-1.7054,-1.7072,-1.7125,-1.7144,-1.7168,-1.7198,-1.7221,-1.7258,-1.7281,-1.7328,-1.7342,-1.7381,-1.7413,-1.747,-1.7506,-1.7544,-1.7555,-1.7558,-1.756,-1.7552,-1.7556,-1.7555,-1.7558,-1.7556,-1.7556,-1.7556,-1.7555,0,-1.7047,-1.7064,-1.7096,-1.7134,-1.7161,-1.7193,-1.7226,-1.724,-1.7285,-1.7309,-1.7347,-1.7372,-1.7423,-1.7461,-1.7504,-1.7529,-1.7551,-1.7555,-1.7559,-1.755,-1.7537,-1.7545,-1.7541,-1.7554,-1.7554,-1.7554,-1.7554,-1.7554,-1.7036,-1.7055,-1.7096,-1.7131,-1.716,-1.7191,-1.7213,-1.7245,-1.7277,-1.7321,-1.7342,-1.738,-1.7421,-1.7481,-1.7506,-1.7537,-1.7543,-1.7549,-1.755,-1.7551,-1.755,-1.7532,-1.7545,-1.7545,-1.7545,-1.7546,-1.7546,0,-1.7032,-1.706,-1.7092,-1.7138,-1.7167,-1.7185,-1.7223,-1.7246,-1.7279,-1.7315,-1.7348,-1.7392,-1.743,-1.7471,-1.7512,-1.753,-1.7541,-1.7539,-1.7539,-1.7545,-1.7542,-1.7535,-1.753,-1.753,-1.753,-1.753,-1.753,-1.753,-1.7033,-1.7066,-1.7088,-1.7137,-1.7166,-1.7204,-1.7224,-1.7254,-1.7284,-1.7332,-1.7364,-1.7391,-1.743,-1.7475,-1.7511,-1.7523,-1.7537,-1.7533,-1.7547,-1.7543,-1.7544,-1.7545,-1.7539,-1.7535,-1.7535,-1.7548,-1.7548,-1.7548]}]]